GFSSGP_850_spd_021.txt.gz
Wind_Speed
5 3 4 4 4 5 3 3 4 6 3 1 2 1 2 3 3 3 2 3 4 6 10 19 21 22 20 18 15 13 12 11 10 10 9 8 6 5 4 4 5 6 5 2 1 0 1 1 3
3 2 3 2 4 4 4 3 4 4 3 2 2 1 1 2 3 4 2 1 7 6 9 18 20 21 21 19 17 15 13 12 11 10 9 9 8 7 6 6 9 9 6 4 3 1 1 1 2
3 2 3 3 3 3 3 2 2 4 5 3 2 2 1 2 3 2 1 2 6 7 9 17 20 20 21 19 18 16 14 13 12 11 10 9 10 9 9 10 11 10 8 6 6 5 4 4 4
1 2 1 4 2 0 3 2 6 2 2 3 1 4 2 3 2 2 4 2 5 7 9 12 19 21 22 21 19 17 16 14 13 13 12 11 11 12 11 13 13 10 10 8 8 6 6 6 5
3 1 3 2 4 2 4 6 4 1 0 5 3 3 7 5 2 2 4 3 4 7 9 12 15 21 22 21 21 19 18 16 15 15 13 13 14 10 9 11 11 11 10 9 9 7 7 6 6
3 1 4 1 4 1 2 5 2 3 2 1 1 1 2 3 4 3 5 6 5 7 9 12 15 17 20 22 23 22 20 19 17 16 16 15 17 12 9 10 11 11 10 10 9 8 6 6 6
2 3 3 3 4 3 2 3 3 3 8 2 0 1 3 5 5 5 7 9 7 8 10 12 15 17 18 22 23 23 23 22 20 18 17 18 18 15 13 9 11 11 10 9 8 8 6 7 8
3 3 3 3 2 2 4 2 0 3 4 3 3 2 2 5 11 11 12 12 10 12 13 13 15 17 19 22 23 23 23 23 23 21 20 22 21 19 17 12 13 12 11 10 9 8 8 8 7
1 4 2 3 5 2 2 5 2 5 9 13 9 16 21 20 20 15 16 15 14 15 17 17 17 17 20 22 23 24 24 24 24 23 25 24 24 23 21 16 15 14 12 11 9 9 10 9 9
3 3 5 2 1 2 6 3 9 8 18 24 23 16 8 18 15 19 21 21 19 18 18 19 20 19 20 22 24 25 25 26 26 26 27 27 27 26 23 20 19 18 16 14 12 12 12 11 11
4 5 2 8 12 7 5 12 8 8 5 21 25 25 23 23 21 20 21 24 26 21 18 18 19 20 22 23 23 26 27 28 29 29 28 28 29 29 28 24 22 21 20 18 16 15 15 14 13
3 10 8 7 17 9 4 9 9 14 25 23 26 24 25 25 17 16 19 17 19 20 20 18 19 20 21 24 25 25 26 27 29 30 29 31 31 29 29 27 25 24 22 20 19 17 18 17 15
4 3 8 12 18 20 17 15 11 26 24 16 18 18 19 14 17 15 17 18 17 18 18 20 20 22 21 22 25 27 27 26 27 28 30 31 31 32 32 27 27 26 24 23 22 20 21 19 17
3 5 11 13 23 21 11 13 3 19 19 14 16 14 21 21 14 17 15 12 15 19 17 17 18 19 22 22 22 25 28 28 28 27 27 31 34 34 34 29 29 28 27 25 24 23 22 21 20
4 4 8 18 9 8 6 4 7 14 15 25 29 27 20 9 3 4 4 2 3 3 12 14 15 15 19 22 22 22 25 28 29 29 27 26 28 31 32 33 30 28 27 27 27 26 26 25 24
4 1 3 6 4 1 3 6 9 16 18 29 32 25 5 3 6 7 5 5 6 6 7 10 13 11 12 18 22 22 22 24 27 27 26 25 26 26 29 30 30 29 30 30 29 28 28 28 27
2 3 5 7 2 3 3 6 14 17 20 30 28 12 6 11 14 14 12 10 10 12 11 9 7 11 11 13 16 19 20 21 22 24 25 26 26 27 30 30 30 31 31 32 31 30 29 30 29
5 4 4 4 4 2 3 9 8 19 26 19 10 11 16 16 19 15 14 12 12 8 5 5 9 9 13 12 12 15 18 16 17 20 22 24 25 27 30 31 31 31 32 34 34 33 31 31 30
3 3 4 5 9 3 7 5 9 18 24 9 20 19 18 20 17 17 17 15 16 15 12 8 1 4 8 10 10 12 15 16 14 15 16 19 22 24 26 29 29 30 33 34 34 34 34 33 32
6 4 6 5 6 1 8 8 11 15 7 8 25 20 17 16 17 20 21 22 25 24 22 18 13 7 3 1 1 3 6 11 14 13 13 16 19 22 23 25 28 29 31 33 34 35 37 36 36
3 4 5 7 5 4 3 7 7 2 19 22 20 20 17 18 20 21 22 24 25 28 29 26 22 16 11 6 2 4 5 7 9 9 12 12 16 20 22 24 25 28 30 32 33 35 37 39 40
3 4 6 4 2 3 3 5 6 1 8 9 15 18 18 18 19 20 22 24 27 27 25 25 25 24 22 17 12 10 7 4 2 4 8 10 14 17 17 21 23 25 29 31 31 32 36 38 41
8 3 2 3 3 2 5 1 7 9 4 6 13 19 18 16 17 19 20 20 20 21 22 22 21 20 21 20 18 15 12 7 3 6 8 9 10 9 12 17 21 23 26 28 29 32 34 38 41
4 2 3 3 3 1 8 6 5 5 7 6 13 19 19 16 15 16 16 16 19 18 19 19 19 19 18 17 16 15 13 11 7 6 6 7 8 9 10 9 13 19 23 26 28 30 32 35 38
3 4 2 3 1 6 3 2 8 3 5 11 16 22 18 14 13 13 14 15 15 15 15 15 15 15 16 16 15 15 14 13 12 12 12 11 9 10 12 13 14 16 15 21 26 30 33 34 37
6 5 4 5 3 5 6 5 4 8 25 28 24 21 15 12 10 10 10 11 12 13 12 11 11 12 12 12 14 15 15 16 16 16 15 14 14 14 14 15 17 19 17 17 19 25 30 34 36
4 4 3 2 1 2 4 4 5 8 11 17 17 14 12 10 7 6 7 9 10 10 10 11 13 13 13 13 12 12 13 14 15 16 16 17 17 17 15 15 15 16 15 17 19 22 25 29 34
3 5 2 2 1 5 5 4 4 5 9 7 9 12 10 7 4 1 3 6 6 7 9 10 11 13 14 14 14 13 12 13 15 16 17 18 19 20 21 21 20 18 17 17 18 21 23 27 30
1 1 2 4 4 4 2 5 5 7 10 10 14 15 14 11 7 6 4 4 4 4 6 9 11 12 13 14 14 15 16 16 17 18 20 21 21 22 23 25 25 26 24 22 21 20 22 24 27
6 6 6 3 5 3 3 9 3 7 14 18 19 18 16 15 11 8 6 3 0 3 4 7 11 14 16 17 17 19 22 24 25 25 24 25 26 26 27 27 28 28 28 28 27 26 24 25 28

GFSSGP_850_spd_024.txt.gz
Wind_Speed
4 4 4 1 4 5 1 2 0 1 2 0 2 1 1 1 2 3 2 2 1 6 13 22 21 19 18 17 15 13 10 9 8 8 8 7 6 5 4 3 4 4 3 2 1 1 2 2 2
3 2 2 3 5 4 4 4 1 2 2 2 0 1 1 0 1 1 2 2 1 5 8 19 22 21 20 18 16 14 12 11 10 10 9 9 8 6 6 6 8 7 6 5 3 1 2 2 2
2 2 2 4 4 4 4 3 2 0 1 1 1 1 0 1 1 1 1 3 3 5 7 13 21 22 22 20 18 16 14 13 13 12 11 10 8 8 8 8 9 8 8 7 5 4 3 3 4
1 2 4 4 2 3 5 4 4 3 0 1 1 1 1 3 1 1 2 3 3 6 7 11 18 22 23 22 20 18 16 15 14 13 12 11 10 10 10 10 11 12 10 8 8 7 6 6 7
4 3 4 3 3 2 1 3 3 2 1 2 2 2 3 4 4 2 2 5 3 4 7 11 15 20 22 22 21 19 18 16 14 13 13 12 12 12 9 11 13 11 9 9 10 8 7 7 7
3 3 5 1 4 4 2 0 4 3 4 3 3 4 4 3 4 3 2 5 5 5 7 10 13 17 21 22 22 21 19 18 16 15 14 12 14 12 10 7 11 11 11 8 8 8 7 7 8
4 4 3 3 2 1 3 1 3 1 3 1 1 2 5 4 4 5 6 10 9 7 8 10 12 15 18 22 22 22 21 20 19 18 16 15 17 15 13 10 9 11 11 10 8 8 7 8 8
2 4 1 2 3 3 4 4 3 5 2 0 1 2 4 11 11 11 9 9 10 11 11 11 13 16 18 20 22 24 24 23 22 20 19 18 19 18 17 13 11 12 12 10 9 8 8 8 9
1 4 1 2 2 3 6 5 4 6 6 10 7 11 15 12 14 13 14 16 15 14 14 15 15 16 18 20 22 23 24 23 24 23 21 22 23 22 21 17 15 13 12 12 10 9 9 10 10
3 3 5 2 1 2 6 2 9 5 14 17 21 13 15 18 18 16 18 20 20 19 16 15 16 17 18 20 23 25 24 25 25 24 22 24 24 25 23 20 19 18 15 14 13 12 11 12 12
3 4 3 4 2 4 5 10 5 2 6 22 23 23 18 17 19 23 19 19 19 17 16 15 14 15 16 19 21 24 27 26 26 25 24 24 25 27 26 25 23 21 19 18 16 14 14 15 14
2 9 9 6 7 5 3 6 11 8 14 21 15 17 15 13 12 13 12 12 17 17 18 19 17 14 15 16 19 22 24 26 27 27 28 26 27 29 28 27 26 24 22 20 20 17 16 17 16
4 4 6 12 17 14 13 15 10 22 16 11 8 11 15 11 9 9 10 11 13 17 18 18 20 20 16 18 18 18 22 24 24 26 28 29 28 30 29 28 27 24 24 22 22 21 20 20 20
1 5 11 13 22 15 8 5 2 10 8 11 11 14 11 6 6 6 10 9 8 11 17 19 17 16 17 17 18 19 18 19 21 22 23 25 28 27 29 29 30 26 24 24 23 23 22 22 22
2 5 7 12 7 6 5 2 6 9 13 15 8 7 3 2 3 4 5 6 7 8 8 14 17 17 15 15 16 17 17 18 20 21 20 21 24 26 29 29 31 30 23 25 25 25 25 25 25
1 2 3 4 2 1 3 7 7 10 14 10 9 5 3 3 4 4 3 5 7 10 10 10 11 12 13 12 14 15 17 17 18 20 21 21 22 25 26 30 33 27 25 25 25 26 28 27 27
3 3 4 8 2 2 2 6 11 18 16 7 5 7 8 9 10 9 7 7 7 7 8 8 9 10 12 11 11 16 16 16 16 17 19 19 21 23 24 25 25 27 26 25 26 27 28 28 29
5 4 4 5 3 1 5 10 10 21 15 6 10 12 12 13 14 14 13 11 9 8 6 3 2 4 6 7 7 10 12 13 14 13 14 15 18 20 23 22 23 25 27 27 28 29 29 30 28
4 4 5 4 8 3 7 4 11 20 8 9 14 14 15 18 17 17 17 17 16 14 12 12 7 4 2 5 6 7 6 7 9 8 11 14 15 16 17 18 20 24 28 27 27 28 30 31 30
5 4 6 6 6 1 7 8 11 7 5 11 20 17 17 17 18 20 21 24 27 26 26 22 20 15 12 8 7 3 2 5 8 8 9 12 14 15 15 16 19 21 25 27 28 28 30 31 32
5 6 5 8 4 2 2 7 6 5 16 20 16 17 17 18 19 20 22 25 26 29 29 28 27 24 21 17 10 5 2 3 5 6 7 10 11 12 13 11 15 20 22 25 26 28 30 31 33
5 6 6 5 3 4 1 5 6 4 6 9 14 16 16 17 18 20 21 24 25 26 24 24 24 23 23 21 18 16 13 10 9 6 5 9 12 13 13 15 16 17 20 23 24 25 28 31 34
8 3 3 0 2 1 3 2 6 7 4 5 12 16 15 15 17 19 20 21 22 22 24 24 22 22 22 20 19 18 17 15 12 8 8 8 7 7 10 14 17 19 20 21 22 23 25 29 33
3 3 5 4 3 2 6 7 4 3 3 7 12 16 15 14 15 17 16 16 19 20 19 19 19 20 19 18 17 16 14 13 13 14 15 17 15 11 10 11 12 14 17 21 25 23 24 27 31
4 5 3 3 1 6 3 3 6 5 3 14 20 20 14 12 12 12 13 14 14 14 14 13 12 12 11 11 10 12 12 12 13 14 16 17 18 18 18 17 15 16 17 17 19 23 27 26 29
6 8 5 7 4 5 4 5 3 4 12 24 23 20 15 12 10 8 8 8 10 11 11 10 9 10 10 10 10 10 10 11 12 13 13 13 15 17 18 18 19 17 18 17 18 21 23 27 30
4 3 1 4 2 3 4 1 2 3 5 13 19 18 15 12 10 4 2 5 8 8 7 7 6 6 7 8 7 9 10 12 14 15 16 17 18 18 18 19 20 19 18 18 19 20 20 23 26
4 6 2 2 1 5 4 5 5 8 9 7 10 17 16 14 12 8 5 5 7 5 5 5 6 6 7 7 7 9 10 12 14 15 17 19 20 22 23 23 25 25 24 23 22 22 22 23 23
2 3 2 3 5 5 2 6 3 8 12 14 17 20 19 17 16 12 9 7 5 3 1 2 4 6 7 9 11 13 14 15 17 17 19 20 20 22 24 25 25 28 30 29 28 28 28 28 29
1 6 6 4 5 3 3 8 1 7 17 18 20 17 16 16 16 14 11 10 7 5 3 1 2 5 8 12 14 16 17 18 21 23 24 24 25 25 28 30 31 31 33 34 33 35 35 34 34

GFSSGP_850_spd_030.txt.gz
Wind_Speed
4 3 3 1 4 5 1 1 1 3 2 1 2 2 1 2 3 2 6 1 3 5 14 16 16 15 15 12 11 10 9 7 5 3 3 3 2 1 1 2 2 4 5 4 4 4 3 2 1
3 3 1 2 5 4 4 4 1 1 1 1 2 3 3 1 3 3 5 3 4 3 11 15 16 15 15 13 13 11 10 8 6 5 4 4 4 3 2 2 4 6 7 5 4 3 2 2 1
3 3 1 4 4 4 3 3 2 2 3 3 2 3 2 2 4 3 5 4 3 1 4 12 15 16 15 13 13 12 10 8 7 6 6 6 5 4 5 6 6 7 7 7 5 3 3 2 3
3 2 5 5 2 1 1 1 2 1 2 4 3 2 1 2 1 2 6 7 5 2 2 6 14 16 16 15 14 14 12 10 9 8 8 8 7 6 6 5 4 5 6 7 7 5 5 5 6
4 3 4 4 2 3 3 1 2 1 1 2 3 2 3 3 0 2 4 7 7 4 1 4 8 15 16 15 15 15 14 12 11 10 9 9 8 8 7 7 6 8 8 7 7 6 6 6 7
3 3 5 2 2 3 2 3 1 2 3 3 3 5 3 7 5 4 3 5 7 5 2 3 6 10 15 17 17 17 16 15 13 12 10 10 9 9 7 7 9 9 10 8 8 7 7 7 8
5 4 4 3 1 2 2 3 3 0 3 3 3 3 1 7 8 6 6 5 4 4 3 3 6 9 12 16 18 19 18 17 15 13 12 11 11 10 9 9 9 9 10 9 8 7 7 7 8
3 5 3 2 1 1 3 2 3 1 1 1 2 2 3 11 7 4 4 5 5 6 6 5 7 9 12 15 18 19 19 18 17 15 13 13 14 14 13 11 10 11 11 11 9 9 8 8 8
3 4 2 4 6 2 2 4 1 5 1 4 2 5 9 9 7 5 4 5 7 8 8 9 10 10 11 13 15 17 19 18 18 16 15 15 17 16 15 13 12 11 12 11 12 11 10 9 8
4 4 6 3 2 2 3 2 6 4 8 2 10 6 7 9 8 7 8 9 11 11 11 11 12 12 12 12 14 15 16 17 17 16 15 16 17 17 16 16 14 14 14 13 13 12 11 12 11
2 4 3 3 5 2 2 4 1 3 4 5 9 8 8 7 3 2 2 5 7 7 8 12 12 13 12 12 12 12 14 17 17 17 17 17 17 18 17 18 18 17 16 16 15 14 11 12 13
1 3 3 2 3 2 3 5 2 6 2 7 2 5 7 6 5 5 6 6 7 7 7 9 12 13 13 13 12 9 10 12 17 18 15 20 18 19 19 18 18 19 19 19 18 16 15 14 14
2 2 3 6 9 9 9 8 4 13 7 3 3 2 5 6 6 7 8 8 8 9 9 9 10 13 15 16 14 11 9 9 10 14 17 17 19 18 19 18 20 20 20 20 22 19 16 15 15
1 4 10 10 11 9 5 2 1 5 7 2 1 6 8 8 8 8 7 8 8 7 8 10 10 11 12 15 14 12 10 8 6 6 8 15 18 18 20 20 20 18 21 22 21 22 20 16 17
1 4 7 6 4 4 4 1 5 7 3 4 3 4 6 9 9 8 7 8 9 10 10 10 9 8 7 10 13 12 9 8 5 4 4 7 9 11 13 16 18 19 20 21 21 21 21 19 19
3 4 4 2 2 1 4 7 3 6 1 5 3 3 5 8 10 9 9 8 9 11 11 11 8 5 1 4 9 10 9 8 6 7 8 8 9 10 12 14 16 17 20 20 21 22 19 22 19
6 3 4 8 1 2 2 5 3 4 6 5 4 4 5 6 7 9 10 10 10 9 9 9 10 8 7 7 6 6 6 6 5 5 7 8 10 12 13 12 14 15 16 18 20 22 22 20 21
6 4 4 6 1 3 2 7 10 8 2 8 7 7 7 8 11 12 12 13 13 13 13 12 11 12 13 11 9 8 6 4 3 1 4 7 8 10 10 13 13 12 13 12 16 17 20 21 17
4 4 6 3 3 2 6 7 12 4 11 12 11 11 11 13 16 17 19 21 21 22 22 21 17 14 9 7 8 8 7 8 6 4 4 5 7 10 12 13 13 12 10 13 11 12 11 13 16
3 4 6 5 4 5 6 9 2 3 2 10 14 13 14 16 17 20 22 23 24 27 28 28 28 26 24 21 19 16 13 12 9 5 3 5 7 8 8 9 13 14 14 15 17 16 17 17 16
5 7 4 7 1 2 1 7 4 3 8 12 12 14 15 16 17 18 20 23 24 26 27 27 27 27 27 26 23 21 18 15 12 11 8 8 10 10 9 8 9 13 15 17 18 19 19 18 17
5 8 7 4 3 4 2 5 4 3 3 4 12 15 15 16 17 17 19 21 22 23 22 21 21 21 21 19 17 15 16 16 17 14 14 13 12 11 10 9 8 8 9 12 14 16 18 20 22
6 5 5 3 3 1 3 0 6 5 5 6 14 16 16 17 17 19 18 17 18 17 17 17 17 18 17 16 16 15 16 15 13 12 11 11 12 12 12 13 13 12 11 10 10 10 11 15 17
9 6 6 4 3 1 8 7 4 5 5 5 15 19 19 18 17 17 16 14 13 13 13 13 13 16 14 12 12 11 12 11 8 10 10 12 12 12 14 15 16 16 16 16 16 16 15 13 12
4 6 0 3 1 6 1 2 7 5 3 5 18 27 23 19 18 17 14 12 10 9 8 9 9 10 9 8 7 7 7 7 8 10 11 11 12 14 15 15 16 17 17 16 17 18 17 17 17
7 6 5 7 4 4 2 6 5 3 6 9 20 28 25 23 19 16 12 9 7 5 4 4 4 5 5 5 6 6 7 8 9 9 11 13 15 16 16 17 17 18 19 20 20 21 21 21 20
5 4 2 6 2 2 5 4 2 1 1 7 19 28 28 25 23 19 15 11 6 3 2 1 1 1 3 3 4 5 5 6 7 8 10 12 13 15 17 19 20 21 22 23 25 26 28 28 28
4 6 4 2 2 5 4 4 5 5 8 6 11 26 27 24 23 21 18 13 9 6 5 5 4 2 2 1 0 2 4 7 8 9 11 12 13 14 16 18 20 23 26 29 32 34 34 36 35
3 3 3 3 4 5 2 5 6 7 9 13 18 29 28 26 25 23 20 18 13 10 9 9 8 7 5 3 2 4 6 9 12 14 16 17 18 18 19 21 23 26 29 32 36 39 40 40 42
0 6 7 6 6 2 1 11 2 4 15 25 26 29 26 24 23 22 22 20 18 14 13 12 11 10 7 6 5 6 9 11 13 16 18 20 21 22 24 26 29 33 36 38 40 42 43 44 43

GFSSGP_850_spd_033.txt.gz
Wind_Speed
2 1 1 2 4 4 1 0 1 2 1 1 1 2 3 3 3 2 5 2 3 6 15 15 15 14 13 12 11 10 8 4 1 1 1 1 1 2 3 2 2 5 6 5 5 4 4 4 5
2 1 2 3 4 3 2 3 2 1 0 1 2 2 3 1 4 3 5 3 5 6 12 14 14 13 12 11 10 9 7 5 3 2 2 2 2 1 1 0 4 7 7 4 4 4 3 3 3
3 3 2 4 3 3 3 3 1 0 2 1 2 3 2 3 5 4 6 6 5 5 9 13 13 13 13 11 10 9 8 6 4 4 4 3 3 2 3 4 5 6 5 5 4 3 3 3 3
2 2 6 4 3 2 0 2 2 1 1 4 3 3 3 4 3 4 8 8 6 4 7 11 14 13 13 12 11 10 9 8 6 5 5 5 5 4 5 3 2 6 7 6 4 4 4 4 4
2 3 4 4 0 1 3 2 2 1 1 3 3 1 3 6 5 5 5 7 7 3 4 6 12 15 14 13 12 12 11 10 8 7 7 7 5 5 6 6 8 10 10 8 7 4 4 4 4
3 3 4 3 2 2 2 1 2 2 1 2 2 2 5 7 4 3 2 4 5 5 2 4 7 12 15 15 14 13 13 12 10 9 8 7 6 6 6 6 8 9 11 10 9 6 5 5 5
6 4 4 4 3 0 2 1 3 3 1 3 2 2 5 5 5 1 1 1 1 3 2 1 4 7 12 15 14 14 13 13 11 10 9 8 8 7 7 7 8 8 9 9 10 9 8 8 7
4 6 4 2 3 3 1 2 2 3 0 3 3 2 1 7 2 1 3 4 5 3 4 5 6 7 9 12 15 16 15 14 13 12 10 9 10 10 10 10 9 9 9 9 9 8 8 8 8
3 4 3 5 6 3 1 2 1 2 1 2 4 2 5 9 7 5 6 6 7 7 8 8 9 9 9 11 13 14 15 15 14 12 12 11 12 15 12 11 11 10 11 11 11 9 8 8 8
4 3 6 5 4 3 2 1 2 1 4 1 3 3 2 4 6 6 6 6 8 10 12 12 12 12 11 10 11 12 13 13 12 14 14 13 14 14 12 11 12 12 12 14 13 11 9 9 8
2 4 4 3 4 3 3 1 0 2 2 2 3 2 3 3 2 0 1 3 4 3 4 9 12 13 13 12 10 10 10 10 13 13 12 14 15 14 13 13 12 13 13 14 15 17 13 11 10
2 1 2 0 3 3 3 2 3 1 4 2 3 0 3 3 3 3 3 3 4 5 6 7 8 11 13 13 12 9 8 9 10 12 12 11 14 16 14 14 14 13 14 15 15 17 18 12 12
2 0 2 4 7 7 5 6 4 1 6 7 6 3 1 4 5 7 7 6 5 5 6 6 6 7 11 15 15 11 8 7 8 9 12 14 11 14 15 14 16 12 13 16 16 17 18 17 15
1 2 7 7 5 6 5 3 4 5 12 9 4 4 5 5 5 5 5 5 4 4 4 5 5 5 6 11 15 12 9 8 7 7 9 11 12 13 13 15 15 15 16 14 15 16 16 16 17
2 2 8 3 2 4 6 2 4 14 11 6 3 3 4 6 6 5 5 5 5 6 6 5 4 3 3 10 16 16 13 10 7 3 2 5 9 9 9 10 12 12 12 15 16 17 18 18 17
2 4 2 2 1 0 5 5 3 13 10 5 3 2 1 3 6 7 6 6 7 7 8 10 8 5 5 7 13 14 12 9 5 4 7 8 8 9 8 9 11 11 12 13 14 16 17 16 17
5 3 4 6 2 2 3 5 6 11 7 6 5 4 3 4 5 6 7 7 8 8 9 11 12 12 12 12 12 12 11 11 7 5 5 6 8 7 11 11 11 13 14 17 17 18 18 19 21
6 4 5 5 3 2 2 8 6 4 6 7 7 6 6 7 8 9 10 10 11 11 11 14 15 16 15 14 13 13 13 12 8 5 3 2 4 6 8 10 11 12 13 14 12 13 13 13 14
5 4 6 2 3 3 6 6 7 4 6 8 8 9 9 11 14 15 16 17 17 17 17 15 14 16 15 13 13 13 13 13 9 6 2 1 3 6 8 9 9 10 12 13 12 13 14 17 19
4 4 6 5 3 2 5 9 7 1 4 8 13 13 14 16 17 19 21 23 25 26 26 26 25 22 21 20 20 19 17 15 12 9 7 6 5 4 3 4 6 7 8 10 12 13 13 14 17
5 7 5 6 1 2 2 7 4 1 2 7 11 13 15 18 20 21 23 25 26 27 25 25 25 23 22 21 20 19 18 17 14 13 11 11 10 9 8 7 5 6 7 8 10 11 12 13 14
6 8 7 5 4 4 1 4 4 3 3 6 14 17 18 19 20 21 22 22 23 24 23 20 19 19 19 17 14 13 13 12 14 13 12 11 11 11 11 12 11 11 11 10 12 13 12 12 13
5 6 7 4 4 2 3 0 7 3 6 8 14 17 18 18 18 19 19 18 19 20 19 17 16 15 15 12 10 11 14 17 15 13 11 12 12 12 12 12 13 13 13 14 13 13 15 15 15
9 6 6 4 3 2 8 8 4 5 6 4 19 27 25 23 22 21 19 17 16 15 15 13 11 12 11 10 12 12 14 13 10 9 8 9 9 10 11 12 13 14 14 15 16 17 16 16 15
1 6 1 2 1 5 3 3 7 3 2 2 19 27 27 26 26 25 22 19 17 12 10 9 8 8 7 5 6 6 6 5 4 4 5 5 7 8 11 12 13 14 15 16 17 18 19 20 21
8 6 5 7 4 3 2 6 6 2 2 4 13 30 30 29 26 24 20 17 15 12 10 8 6 4 4 4 5 5 5 4 3 4 5 6 8 10 11 12 14 15 16 18 19 20 22 23 24
6 6 4 6 2 3 4 4 3 1 1 3 17 29 34 32 30 27 22 18 15 12 10 7 5 5 6 6 5 4 4 3 3 4 5 7 8 10 12 13 15 17 18 20 22 24 27 28 29
5 7 3 2 2 4 3 4 5 6 8 6 12 27 34 33 31 28 25 20 16 14 12 9 9 8 8 7 6 3 1 1 2 4 6 8 10 10 11 13 14 16 18 21 24 26 28 31 33
4 3 2 4 4 5 2 5 6 9 9 14 20 33 38 37 34 31 27 23 19 17 15 13 12 12 11 10 8 5 3 1 3 6 9 11 14 15 16 18 19 21 23 25 28 30 32 34 36
2 7 7 4 5 2 1 6 1 4 10 21 25 32 35 34 33 30 28 26 25 22 20 16 15 16 15 13 11 7 4 3 6 9 12 14 16 18 20 21 22 24 26 29 32 34 36 38 39